Theta_e
339 345 349 349 347 347 346 345 343 343 343 342 342 341 341 342 342 342 343 340 340 339 341 341 341 341 341 341 340 339 337 337 336 336 336 335 334 332 333 332 337 329 334
341 345 348 349 347 346 345 344 343 343 340 340 339 339 341 342 341 340 339 339 336 336 337 339 340 340 340 339 337 336 334 333 333 336 337 335 333 332 333 333 336 328 335
343 345 346 348 349 347 346 345 344 342 339 338 338 338 340 341 339 338 337 337 336 334 335 339 338 338 338 338 337 334 332 331 330 333 335 327 326 331 331 331 331 330 331
342 343 344 346 348 346 346 345 344 342 339 338 337 336 337 339 338 338 337 336 334 335 339 338 337 337 337 338 337 334 331 329 330 331 323 325 326 330 329 329 329 330 329
338 344 343 345 347 346 345 345 344 343 340 337 337 339 336 337 338 338 338 337 335 332 332 336 336 337 339 339 336 333 329 329 331 328 321 320 323 328 328 328 327 329 329
338 344 343 346 347 346 345 343 342 339 336 335 335 338 340 338 338 339 337 335 336 334 330 334 334 335 338 336 334 331 329 328 331 321 321 322 324 328 326 325 325 327 329
337 342 343 345 346 346 344 342 341 339 336 335 336 338 336 337 338 339 338 336 336 332 331 331 330 331 333 334 334 331 329 329 323 320 321 320 323 327 326 324 324 325 325
337 340 342 339 342 343 343 342 341 340 339 338 337 337 337 339 339 339 338 337 336 333 332 330 328 327 328 330 329 328 329 328 325 323 320 321 329 326 326 325 324 325 324
338 338 340 341 340 336 339 339 340 339 339 338 337 337 336 335 337 340 337 338 334 334 333 332 329 327 326 326 328 328 327 325 320 321 322 321 330 327 327 326 325 325 325
337 337 337 339 341 341 338 334 335 336 337 336 335 333 332 331 332 333 332 334 338 336 335 334 333 330 328 328 328 326 324 324 319 321 321 322 330 329 329 328 326 326 326
335 336 336 336 338 340 340 336 330 332 333 333 332 329 327 328 329 327 328 331 335 335 335 336 335 333 331 329 328 326 323 317 317 320 320 327 330 329 329 329 329 327 326
330 334 335 336 337 338 338 336 336 336 334 333 332 331 329 326 326 327 325 327 329 328 332 334 335 332 327 324 323 325 321 318 316 318 320 328 330 330 330 331 331 330 328
318 330 334 335 336 336 336 337 337 337 336 335 334 334 332 329 327 325 324 324 323 321 323 326 327 327 326 325 324 323 321 320 318 318 320 327 331 331 331 331 331 332 332
315 318 327 334 334 335 335 337 336 336 336 335 335 335 333 330 328 327 325 324 326 325 322 323 323 324 324 324 323 322 322 319 318 319 318 323 329 331 331 331 332 332 333
314 315 318 327 333 334 334 334 335 335 336 334 335 335 334 332 330 329 328 326 325 325 324 323 323 323 323 322 323 322 322 321 320 319 319 318 324 330 330 331 332 333 332
315 313 318 321 328 332 332 334 333 333 336 335 334 333 335 333 332 331 329 329 328 326 324 324 323 322 322 322 322 322 321 321 322 322 321 320 321 327 330 331 331 333 333
315 315 316 321 323 326 329 331 333 334 334 335 335 334 334 335 333 332 331 330 329 329 328 327 326 324 323 323 321 322 322 322 322 323 323 323 322 321 326 330 331 331 332
313 314 314 317 318 321 322 325 328 332 333 332 335 335 334 334 334 332 331 330 330 330 329 327 326 324 324 322 321 320 322 322 325 324 324 324 323 323 322 326 329 332 331
310 311 312 314 313 314 318 322 324 326 329 332 332 335 335 334 332 332 332 331 331 331 329 327 326 325 323 323 324 323 323 323 325 327 326 324 324 324 323 322 322 324 329
309 309 311 313 316 318 315 319 322 324 327 329 331 333 334 334 333 331 331 329 329 328 327 327 325 325 324 324 324 323 324 324 323 322 324 325 325 324 324 322 322 319 321
306 306 307 308 312 314 318 317 320 321 324 326 329 330 331 331 331 330 329 328 328 327 326 325 324 323 323 323 320 320 321 322 321 321 322 323 323 324 324 324 324 324 323
302 302 303 305 308 309 312 318 323 324 323 320 321 319 322 328 326 326 325 326 326 326 324 324 322 321 321 321 317 316 312 314 318 320 321 321 321 323 323 324 324 323 323
298 299 300 302 304 306 309 312 323 325 316 313 315 314 316 317 311 310 312 314 316 319 320 322 323 322 319 320 320 316 310 308 314 316 318 321 321 319 321 320 321 322 323
296 297 298 299 300 303 305 310 312 311 308 309 309 309 310 307 301 301 303 305 308 310 307 308 311 313 316 315 315 319 320 317 310 308 313 316 318 319 318 319 319 320 321
295 294 295 296 296 297 298 299 300 299 300 299 299 298 299 300 298 297 299 299 300 301 302 304 305 306 308 311 312 313 312 314 316 312 308 311 314 315 317 319 320 320 321
292 292 292 292 293 294 293 293 294 294 293 292 293 293 294 295 295 294 295 296 297 297 298 299 300 303 305 305 307 309 309 308 308 308 307 309 310 314 315 317 318 319 320
Wind_Speed
10 10 8 9 9 9 9 9 8 8 9 9 9 10 8 8 10 11 11 11 11 11 12 12 13 11 11 13 13 14 14 13 11 11 11 11 10 10 10 4 10 7 8
13 12 9 8 9 8 8 8 7 6 6 7 8 8 8 9 9 11 10 9 9 8 8 10 12 12 10 11 11 12 11 10 8 6 9 12 10 9 10 13 11 8 8
14 11 9 7 8 8 7 7 6 5 5 5 5 5 8 10 10 10 10 9 8 7 7 11 10 10 9 7 10 9 8 6 5 1 4 2 6 8 8 9 6 8 6
11 10 10 9 8 7 8 7 5 4 3 3 2 2 4 7 7 9 10 9 7 4 8 9 9 8 7 4 10 8 5 5 6 8 5 4 8 6 6 5 5 8 5
5 11 10 10 8 7 7 7 6 5 3 2 2 2 3 4 5 8 8 9 6 5 5 8 8 9 9 12 9 8 3 5 8 8 6 5 4 6 4 5 2 4 3
5 13 10 10 8 8 7 7 7 5 2 2 1 3 5 4 5 9 7 7 8 6 3 8 6 7 9 8 7 5 2 4 9 4 4 2 6 7 3 2 3 4 3
7 11 9 9 8 7 7 6 5 5 4 3 3 4 2 2 4 5 7 7 6 4 4 4 4 4 5 5 5 3 2 5 6 6 3 4 5 6 4 1 1 3 2
7 6 10 9 7 7 6 6 6 5 5 4 4 3 4 1 1 6 5 8 5 7 5 3 2 1 1 2 3 2 1 5 7 6 2 5 8 6 4 4 3 3 4
7 5 8 9 8 6 5 5 6 6 6 5 5 4 4 3 2 3 4 4 5 6 6 5 3 2 2 2 2 2 3 4 4 5 5 3 8 7 6 6 6 6 7
6 4 6 6 7 8 7 9 7 6 6 6 5 5 5 4 4 5 4 6 9 6 6 7 7 6 6 6 5 6 6 7 6 6 4 4 10 8 8 9 7 8 9
5 7 5 7 7 7 6 8 8 6 6 5 5 6 4 4 6 8 8 8 7 8 8 10 9 8 8 8 9 10 8 4 6 5 3 11 11 9 9 10 12 11 11
8 8 7 6 7 8 5 6 7 8 6 5 6 6 5 6 6 3 5 8 7 5 7 8 9 10 6 4 4 9 4 6 5 4 3 12 13 11 11 13 13 14 13
2 5 7 6 6 6 6 4 4 3 4 4 7 5 6 5 4 3 3 3 4 7 4 6 6 4 6 6 6 5 6 6 4 3 5 12 14 13 13 15 16 16 17
5 7 4 9 6 6 5 5 5 4 4 3 4 6 3 3 3 3 3 5 5 4 6 5 4 6 8 9 7 6 5 4 3 3 5 11 13 16 16 17 18 19 19
6 4 5 5 8 6 6 4 4 4 5 4 4 6 5 4 4 4 4 4 4 4 4 4 5 4 5 5 5 5 6 6 6 4 3 9 13 16 18 19 20 21 21
4 2 3 5 4 5 5 6 5 5 6 5 5 4 5 6 5 4 4 4 4 4 4 4 5 4 4 5 6 6 6 6 6 7 5 6 14 18 20 22 22 23 24
3 1 1 2 5 3 5 5 4 5 6 6 6 7 7 5 6 5 4 4 5 5 6 4 4 4 4 5 6 5 5 7 7 9 8 7 7 15 18 23 24 24 26
6 6 5 4 3 5 5 4 3 5 4 5 6 5 8 9 6 4 5 5 3 4 4 3 4 4 5 5 4 5 6 5 8 9 8 7 7 7 12 22 24 24 26
9 9 9 9 7 7 5 4 4 4 3 3 4 5 6 7 5 5 4 4 4 3 3 3 3 3 4 4 5 5 5 5 7 7 9 10 10 10 9 10 21 23 24
8 8 8 7 8 9 5 3 3 2 2 1 3 2 4 3 6 5 3 4 4 3 3 3 3 2 3 4 5 6 6 5 5 5 10 10 9 10 10 10 9 9 20
9 8 8 8 8 7 5 2 2 2 2 1 6 9 8 5 5 2 3 3 4 3 4 4 2 4 4 3 4 5 7 9 10 11 10 10 11 12 11 8 7 7 7
8 8 8 8 7 6 5 4 3 3 6 5 6 8 9 7 8 6 6 5 4 3 4 4 5 2 3 3 3 3 4 3 7 8 8 8 11 8 9 10 11 11 9
8 8 8 8 7 6 7 4 4 4 4 4 5 4 5 10 11 11 10 8 7 6 5 6 5 5 4 3 6 3 3 3 7 5 3 4 7 5 5 6 9 10 10
7 7 7 8 9 10 13 7 6 6 6 5 5 6 7 11 12 11 10 10 9 7 8 6 7 7 6 6 3 4 8 6 5 9 2 3 5 6 9 7 7 8 8
6 6 7 7 9 11 11 11 8 9 6 5 6 8 8 8 11 11 9 8 8 6 6 7 8 7 4 3 5 6 3 4 6 5 10 7 6 5 6 7 7 8 11
7 7 7 8 8 8 10 11 9 9 8 6 7 6 5 5 6 9 9 7 6 6 6 6 6 7 7 7 6 6 7 6 8 7 7 10 11 8 6 6 6 7 8
Wind_Direction
109 118 125 123 120 121 117 110 106 100 99 89 85 78 68 86 86 82 73 64 65 68 64 58 56 53 60 64 72 75 77 78 79 85 89 81 77 75 67 81 94 73 78
120 122 128 128 127 123 118 111 110 107 100 98 95 96 65 110 89 83 80 69 57 60 73 70 59 51 47 76 73 71 68 69 75 89 101 90 70 73 67 62 79 81 63
108 124 136 136 125 122 123 118 115 112 108 101 112 103 94 104 101 99 92 84 71 69 72 71 61 51 32 81 88 76 71 56 34 19 203 121 84 73 77 84 87 86 75
135 138 135 133 129 129 135 135 133 129 107 92 73 116 124 120 120 116 113 106 97 76 79 81 59 42 19 78 105 90 61 18 353 348 355 70 96 81 83 82 100 90 86
111 116 122 135 138 138 140 147 149 144 135 76 9 294 169 156 137 134 128 109 98 80 68 58 56 43 44 110 113 105 75 347 333 326 73 6 29 102 76 75 78 67 104
127 113 129 134 147 150 150 154 155 153 157 121 78 7 190 138 117 137 136 124 109 87 80 57 55 55 67 100 101 103 67 333 324 311 74 94 88 106 112 50 17 11 83
133 118 130 144 157 159 161 164 168 163 167 149 140 85 65 151 145 150 144 145 116 109 95 81 63 61 62 66 77 74 26 329 311 316 36 76 122 117 149 173 257 2 200
124 129 135 153 170 174 178 181 182 176 175 171 157 128 66 154 352 199 173 164 160 138 153 136 117 81 103 124 133 129 320 319 312 314 187 115 133 146 181 188 227 234 287
113 151 145 160 172 184 200 201 198 194 189 190 189 168 117 76 33 219 194 180 172 172 181 185 190 209 266 282 268 239 262 272 282 289 301 135 154 166 200 205 224 229 239
136 179 177 153 168 181 186 201 201 206 208 208 207 208 179 189 214 211 197 209 184 197 203 202 207 221 236 234 228 246 263 279 268 263 254 155 167 185 207 217 226 235 241
172 179 218 165 166 187 200 187 190 201 215 227 231 230 222 222 212 202 198 184 219 205 214 212 217 219 234 252 252 241 234 247 262 241 244 167 183 200 221 235 219 229 238
191 188 188 200 178 182 196 152 186 187 193 200 220 214 210 227 220 191 150 160 180 205 240 242 226 224 220 241 251 235 227 236 253 259 250 185 198 213 230 243 235 231 226
265 178 176 190 205 200 174 177 189 181 191 202 207 229 204 211 217 189 175 187 205 209 215 220 227 216 205 210 245 194 224 225 232 246 259 196 208 222 236 242 246 240 235
337 318 220 173 199 218 177 179 170 183 191 213 206 210 223 249 240 237 197 212 195 202 202 220 215 209 210 222 221 243 254 254 244 240 248 206 211 223 237 244 246 247 240
242 275 303 218 182 205 196 184 185 185 195 196 211 218 194 201 215 229 230 226 216 211 209 219 225 242 242 241 245 244 245 239 243 240 235 226 218 228 238 245 247 246 246
185 286 354 300 205 200 207 198 186 187 184 192 202 251 220 201 205 209 222 217 226 219 221 213 213 226 241 238 238 234 237 237 237 240 238 238 218 223 232 240 248 252 251
292 277 273 295 342 269 228 228 206 195 179 181 194 189 238 252 214 218 224 222 220 222 234 235 233 221 228 247 252 241 234 233 237 243 243 243 243 226 230 241 245 248 248
8 345 344 2 219 244 281 269 231 210 203 181 173 192 206 220 229 232 246 240 242 255 223 220 228 239 238 227 241 245 246 241 244 242 247 247 242 240 229 236 239 242 247
24 13 357 349 339 333 311 273 272 278 242 198 186 186 188 210 219 232 266 266 238 241 236 232 251 240 262 258 251 257 251 249 253 256 255 251 243 249 247 239 231 239 241
30 14 3 357 355 337 303 301 298 310 282 300 282 151 183 193 197 210 233 280 310 304 283 266 259 279 263 286 295 280 284 284 289 282 269 260 255 249 245 248 243 234 238
35 22 9 6 360 5 343 299 232 235 230 35 49 49 47 40 31 288 269 275 267 275 262 258 264 270 277 253 280 264 257 253 255 253 257 256 254 255 256 249 246 253 245
35 18 19 10 14 2 342 322 349 22 61 60 49 47 37 41 38 29 12 354 319 294 281 251 237 249 234 201 247 257 273 276 242 244 242 253 261 257 256 253 258 250 237
36 21 26 13 8 358 342 332 4 59 54 32 43 46 36 57 42 29 23 17 7 9 8 358 339 303 297 254 215 244 293 260 325 280 248 238 243 264 266 258 254 257 253
34 21 32 21 17 15 9 13 45 61 72 41 38 44 49 52 43 25 20 13 14 17 18 1 357 359 345 325 306 238 259 277 301 307 263 304 274 281 275 271 264 264 252
56 33 33 33 33 24 22 29 36 44 45 36 28 36 37 42 53 26 17 10 18 11 1 1 360 353 358 324 353 337 294 282 271 292 301 309 291 250 262 268 258 258 261
47 45 35 41 33 35 35 27 32 42 50 37 35 29 20 30 34 21 12 7 10 6 6 360 353 355 11 7 354 353 5 347 351 340 333 319 317 309 292 261 262 263 261